Regional Weather Roundup
Issued by NWS Newport/Morehead, NC

Current Version | Previous Version | Graphics & Text | Print | Product List | Glossary Off
Versions: 1 2 3 4 5 6 7 8 9 10 11 12 13 14 15 16 17 18 19 20 21 22 23 24 25 26 27 28 29 30 31 32 33 34 35 36 37 38 39 40 41 42 43 44 45 46 47 48 49 50

000
ASUS42 KMHX 300322
RWRMHX
WEATHER ROUNDUP FOR EASTERN NORTH CAROLINA
NATIONAL WEATHER SERVICE NEWPORT/MOREHEAD CITY NC
1100 PM EDT MON SEP 29 2014

NOTE: "FAIR" INDICATES FEW OR NO CLOUDS BELOW 12,000 FEET
WITH NO SIGNIFICANT WEATHER AND/OR OBSTRUCTIONS TO VISIBILITY

NCZ015>017-031-032-045>047-102-103-300400-
NORTH COAST

CITY           SKY/WX    TMP DP  RH WIND       PRES   REMARKS
EDENTON        CLOUDY    66  63  90 N6        29.95F
ELIZABETH CITY CLOUDY    67  64  90 NW6       29.95S
KITTY HAWK     CLOUDY    70  65  86 N3        29.92F
MANTEO         CLOUDY    69  65  88 N7        29.93F

$$

NCZ045>047-081-094-103-104-300400-
CENTRAL COAST

CITY           SKY/WX    TMP DP  RH WIND       PRES   REMARKS
FRISCO         LGT RAIN  66  65  96 N3        29.93F
SWANQUARTER      N/A     68 N/A N/A N1G7      29.91S

$$

NCZ095-097-098-100-101-300400-
SOUTHERN COAST

CITY           SKY/WX    TMP DP  RH WIND       PRES   REMARKS
BEAUFORT       CLOUDY    69  66  90 N8        29.94F
CEDAR ISLAND     N/A     72 N/A N/A N7        29.97S
JACKSONVILLE   CLOUDY    68  64  87 N8        29.94F
NEWPORT        NOT AVBL
PINEY ISLAND   CLOUDY    73  67  81 N6        29.94S HAZE
WILMINGTON     CLOUDY    65  63  93 CALM      29.96S


$$

NCZ011>013-027>030-043-044-078>080-089-090>093-098-300400-
COASTAL PLAIN

CITY           SKY/WX    TMP DP  RH WIND       PRES   REMARKS
AHOSKIE        RAIN      62  61  97 CALM      29.97F
CLINTON        CLOUDY    64  64 100 CALM      29.96F
ELIZABETHTOWN  CLOUDY    64  64 100 CALM      29.97F
GOLDSBORO      CLOUDY    64  64 100 CALM      29.95F
GREENVILLE     CLOUDY    64  64 100 CALM      29.98F
HAVELOCK       CLOUDY    69  67  93 N3        29.96S
KENANSVILLE    CLOUDY    64  63  94 CALM      29.97F
KINSTON        LGT RAIN  65  64  97 CALM      29.97F
NEW BERN       CLOUDY    69  65  86 N6        29.96F
RICHLANDS      CLOUDY    66  63  88 N3        29.95F
ROANOKE RAPIDS NOT AVBL
ROCKY MOUNT    FOG       63  62  97 CALM      29.97F VSB 3/4
WASHINGTON     CLOUDY    65  63  94 CALM      29.97S
WHITEVILLE     CLOUDY    64  63  95 CALM      29.95F

$$

AMZ130-135-150-152-154-156-158-170-250-252-270-ANZ085-086-088-633-658-670-300400-
MARINE OBSERVATIONS

STATION/POSITION TIME  TEMP    WIND        PRES    WAVE   SWELL
                       AIR SEA DIR/SP/G            HT/PER HT/PER
                 (UTC) (F)     (DEG/KT/KT) (MB)    (FT/S) (FT/S)
CHESAPEAKE LIGHT 0300   71     340/  8/  8 1015.1
BUOY 44014       0300   71 72  350/  8/ 10 1013.2    2/ 8   2/ 8
DUCK             0300   71 73   10/ 10/ 11 1012.8
2E DUCK          0300                        N/A     2/ 8
OREGON INLET     0300   70 73  360/  8/ 11 1013.2
BUOY 44095       0300      73                N/A     3/ 7
20E OREGON INLET NOT AVBL
HATTERAS CG      0300   71 76   10/  7/  9 1013.9
DIAMOND BUOY     0300   73      10/ 12/ 14 1013.1    3/ 8   2/ 8
CAPE LOOKOUT     0300   71     360/  8/  9 1013.4
BEAUFORT LAB     0300   70 75  360/  6/  9 1013.2
30 SE NEW RIVER  0300   73 80   20/ 14/ 16 1012.9    3/ 8   2/ 8
5 SE WRIGHTSVILL 0300   66 76   40/ 12/ 14   N/A
BUOY 41002       0239   80 81  140/  8/ 10 1013.0    3/ 8   3/ 8
BUOY 41004       0300   75 81   50/ 17/ 21 1011.4    6/ 6   2/15

$$



USA.gov is the U.S. government's official web portal to all federal, state and local government web resources and services.